Location: Dehesa de la Cepeda
(40.6574°N, 4.3013°W)
Time: 19:13:34
(UTC+00:00)

Vanguard 2 Rocket - Pass Details

Date: 09 August 2021
Orbit: 556 x 3324 km, 32.9° (Epoch: 19 September)

Event Time Altitude Azimuth Distance (km) Brightness Sun altitude
Rises 06:41:13 0° 254° (WSW) 3,753 9.4 13.6°
Reaches altitude 10° 06:44:33 10° 246° (WSW) 2,452 8.6 14.3°
Maximum altitude 06:49:19 32° 183° (S) 1,107 7.4 15.2°
Drops below altitude 10° 06:52:59 10° 118° (ESE) 1,868 9.6 15.8°
Sets 06:55:11 0° 107° (ESE) 2,721 10.6 16.3°
